Total_Precipitation_Accumulation
0.06 0.11 0.28 0.54 1.12 1.41 1.19 0.74 0.54 0.51 0.57 0.58 0.51 0.48 0.55 0.62 0.82 1.41 1.04 0.57 0.31 0.23 0.31 0.48 0.68 0.63 0.61 0.62 0.63 0.64 0.60 0.59 0.57 0.57 0.56 0.62 0.66 0.63 0.61 0.69 0.79 0.83 0.84 0.89 0.92 0.84 0.82 0.83 0.85
0.10 0.18 0.38 0.92 1.39 1.28 1.13 0.63 0.36 0.45 0.54 0.67 0.67 0.53 0.44 0.46 0.43 0.47 0.54 0.61 0.28 0.20 0.23 0.30 0.51 0.53 0.51 0.52 0.53 0.53 0.51 0.49 0.51 0.52 0.54 0.60 0.65 0.68 0.69 0.78 0.87 0.91 0.93 0.96 0.90 0.82 0.80 0.80 0.89
0.13 0.25 0.45 0.91 0.96 0.85 0.85 0.51 0.38 0.33 0.50 0.73 0.71 0.48 0.47 0.51 0.42 0.38 0.41 0.46 0.30 0.25 0.20 0.26 0.43 0.44 0.44 0.43 0.45 0.46 0.49 0.45 0.46 0.51 0.53 0.60 0.68 0.78 0.84 0.91 0.98 1.03 1.04 0.98 0.91 0.83 0.79 0.78 0.82
0.15 0.31 0.54 0.61 0.41 0.32 0.40 0.45 0.47 0.45 0.63 0.76 0.62 0.52 0.53 0.53 0.45 0.36 0.34 0.42 0.28 0.28 0.23 0.27 0.40 0.38 0.37 0.38 0.38 0.41 0.45 0.45 0.47 0.52 0.53 0.61 0.68 0.77 0.88 0.91 0.95 1.05 1.03 0.92 0.86 0.88 0.81 0.79 0.83
0.14 0.30 0.57 0.45 0.27 0.20 0.22 0.28 0.36 0.53 0.70 0.82 0.69 0.66 0.73 0.57 0.45 0.38 0.34 0.45 0.41 0.34 0.32 0.34 0.43 0.42 0.40 0.39 0.41 0.42 0.43 0.44 0.44 0.47 0.49 0.61 0.67 0.72 0.82 0.88 0.89 0.87 0.88 0.87 0.87 0.92 0.90 0.90 0.90
0.13 0.25 0.43 0.30 0.18 0.16 0.20 0.25 0.39 0.58 0.61 0.69 0.79 0.86 0.87 0.65 0.55 0.47 0.45 0.56 0.58 0.48 0.38 0.46 0.50 0.53 0.51 0.47 0.47 0.49 0.49 0.45 0.44 0.49 0.52 0.61 0.69 0.75 0.83 0.88 0.82 0.72 0.68 0.74 0.82 0.91 0.94 0.91 0.88
0.16 0.20 0.23 0.18 0.13 0.15 0.22 0.32 0.36 0.49 0.57 0.77 0.82 0.85 0.93 0.87 0.72 0.59 0.71 0.94 0.90 0.74 0.56 0.57 0.56 0.53 0.55 0.58 0.58 0.57 0.56 0.54 0.52 0.54 0.57 0.61 0.69 0.70 0.77 0.90 0.83 0.70 0.67 0.71 0.82 0.86 0.97 0.89 0.85
0.10 0.16 0.18 0.15 0.09 0.13 0.19 0.26 0.37 0.50 0.62 0.69 0.79 0.91 0.93 0.84 0.74 0.79 1.01 1.38 1.50 1.34 1.02 0.72 0.66 0.71 0.66 0.61 0.66 0.67 0.56 0.55 0.58 0.61 0.65 0.71 0.79 0.82 0.84 0.87 0.93 0.80 0.80 0.81 0.91 0.90 0.88 0.91 0.94
0.05 0.12 0.16 0.12 0.10 0.13 0.20 0.25 0.32 0.38 0.48 0.70 0.88 1.02 0.92 0.73 0.76 0.98 1.20 1.52 1.70 1.52 1.33 1.13 1.01 0.90 0.86 0.79 0.67 0.82 0.72 0.69 0.76 0.90 0.93 1.09 1.26 1.13 1.12 1.01 1.11 1.05 1.06 1.17 1.30 1.24 1.17 1.15 1.15
0.03 0.07 0.08 0.06 0.05 0.06 0.12 0.22 0.29 0.43 0.74 1.17 1.40 1.26 1.01 0.86 0.97 1.23 1.40 1.41 1.49 1.52 1.48 1.51 1.32 1.19 1.20 1.09 1.18 1.43 1.29 1.23 1.35 1.49 1.48 1.79 1.93 1.71 1.24 1.27 1.55 1.54 1.62 1.73 1.88 2.01 1.77 1.53 1.33
0.01 0.04 0.04 0.03 0.03 0.03 0.07 0.15 0.27 0.45 0.96 1.45 1.65 1.35 1.14 1.09 1.19 1.34 1.65 1.75 1.83 1.81 1.64 1.72 1.64 1.53 1.58 1.69 1.67 1.78 1.87 1.92 2.03 2.05 2.11 2.31 2.10 1.72 1.51 1.66 1.97 2.00 2.01 2.04 2.26 2.41 2.02 2.01 2.05
0.01 0.00 0.01 0.01 0.02 0.02 0.05 0.15 0.35 0.59 0.99 1.28 1.21 1.07 1.06 1.26 1.45 1.62 1.89 2.19 2.29 2.32 2.20 1.98 1.93 2.11 2.11 2.02 1.96 1.80 1.63 1.64 1.84 1.98 1.96 2.32 2.52 2.39 2.33 2.36 2.19 2.30 2.48 2.78 2.68 2.67 2.48 2.47 2.31
0.00 0.00 0.01 0.01 0.01 0.04 0.08 0.17 0.37 0.69 0.90 0.96 0.84 0.88 1.14 1.42 1.68 2.12 2.53 2.61 2.58 2.78 2.92 2.72 2.64 2.59 2.41 2.41 2.07 1.78 1.70 1.59 1.52 1.74 1.91 2.14 2.47 2.56 2.60 2.33 2.22 2.08 2.26 2.49 2.52 2.31 2.43 2.57 2.54
0.00 0.01 0.01 0.02 0.03 0.06 0.15 0.24 0.37 0.61 0.69 0.70 0.77 1.01 1.22 1.61 1.91 2.43 2.92 2.98 3.07 3.32 3.49 3.39 3.35 3.14 2.83 2.57 2.38 2.23 1.96 1.88 1.59 1.65 1.66 2.00 2.37 2.41 2.28 2.29 2.31 2.17 2.28 2.30 2.30 2.35 2.55 2.69 2.75
0.00 0.02 0.08 0.08 0.06 0.08 0.17 0.39 0.47 0.65 0.74 0.69 0.87 1.04 1.42 1.87 2.12 2.45 2.70 3.09 3.50 3.87 3.92 3.86 3.86 3.73 3.64 3.31 2.91 2.52 2.35 2.07 1.97 1.89 1.71 1.94 2.24 2.37 2.35 2.29 2.15 2.15 2.21 2.31 2.37 2.41 2.54 2.43 2.47
0.02 0.07 0.19 0.18 0.12 0.11 0.17 0.55 0.78 0.74 0.72 0.76 0.93 1.27 1.54 1.84 2.24 2.46 2.78 3.13 3.53 4.03 4.40 4.45 3.96 3.90 3.91 3.78 3.47 3.06 2.94 2.77 2.55 2.18 1.95 1.89 2.07 2.13 2.23 2.07 2.04 2.11 1.97 1.99 2.14 2.09 2.15 2.22 2.33
0.06 0.12 0.19 0.27 0.17 0.14 0.25 0.76 1.09 0.82 0.67 0.81 1.07 1.40 1.75 1.98 2.39 2.51 2.70 2.98 3.43 4.29 5.18 5.16 4.61 4.20 3.90 3.83 3.83 3.69 3.48 3.09 2.66 2.36 2.17 1.99 1.85 1.69 1.76 1.73 1.81 1.80 1.76 1.79 1.63 1.92 2.02 2.13 2.17
0.07 0.12 0.24 0.36 0.22 0.21 0.32 0.71 0.77 0.68 0.86 0.88 0.92 1.15 1.49 1.61 1.90 2.17 2.46 2.99 3.80 4.97 5.75 5.64 5.00 4.52 4.19 3.99 3.79 3.71 3.39 3.06 2.62 2.41 2.23 1.95 1.86 1.59 1.55 1.52 1.60 1.54 1.59 1.72 1.78 1.92 1.90 1.85 1.87
0.05 0.11 0.23 0.27 0.20 0.29 0.38 0.60 0.70 0.82 1.02 1.02 0.88 0.93 1.23 1.43 1.71 2.17 2.72 3.56 4.64 5.54 5.82 5.30 4.79 4.44 4.01 3.59 3.02 2.65 2.58 2.46 2.17 1.90 1.64 1.52 1.44 1.50 1.55 1.39 1.51 1.41 1.44 1.45 1.48 1.58 1.58 1.54 1.62
0.07 0.10 0.21 0.27 0.18 0.22 0.38 0.71 1.02 1.00 0.93 0.89 0.95 0.95 1.05 1.43 1.88 2.59 3.62 4.21 4.44 4.57 4.33 3.99 3.72 3.50 3.04 2.67 2.43 2.18 2.14 1.94 1.75 1.65 1.61 1.35 1.25 1.29 1.24 1.35 1.33 1.29 1.42 1.44 1.42 1.47 1.46 1.37 1.40
0.11 0.12 0.20 0.25 0.16 0.17 0.38 0.89 1.18 1.17 0.95 0.81 0.86 0.85 1.04 1.47 2.06 2.86 3.42 3.55 3.27 2.95 2.85 2.80 2.86 2.62 2.48 2.43 2.32 2.21 2.17 1.94 1.68 1.56 1.51 1.29 1.11 1.12 1.16 1.17 1.18 1.27 1.25 1.38 1.42 1.31 1.35 1.39 1.34
0.09 0.08 0.07 0.10 0.16 0.35 0.54 1.11 1.31 1.09 1.06 0.89 0.88 0.89 0.94 1.22 1.57 1.99 2.23 2.12 2.24 2.38 2.39 2.50 2.59 2.34 2.32 2.26 1.97 1.87 1.75 1.63 1.47 1.41 1.41 1.48 1.24 1.08 1.04 1.04 1.04 1.12 1.13 1.33 1.17 1.20 1.35 1.41 1.28
0.04 0.04 0.05 0.11 0.23 0.43 0.63 0.89 1.06 0.90 1.09 0.88 0.74 0.73 0.72 0.88 0.96 1.07 1.20 1.35 1.57 1.68 1.84 2.14 2.38 2.32 2.16 1.99 1.92 1.95 1.80 1.74 1.71 1.72 1.66 1.61 1.48 1.25 1.09 1.11 1.09 1.12 1.07 1.13 1.11 1.34 1.32 1.26 1.21
0.04 0.06 0.13 0.23 0.40 0.90 0.86 0.84 1.09 1.03 1.09 0.85 0.66 0.58 0.63 0.75 0.83 0.86 0.92 1.05 1.22 1.35 1.52 1.77 2.07 2.20 2.13 1.97 1.87 1.88 1.90 1.83 1.74 1.72 1.68 1.50 1.40 1.32 1.18 1.15 1.14 1.10 1.07 1.05 1.04 1.21 1.24 1.29 1.31
0.06 0.08 0.24 0.58 0.99 1.16 0.74 0.82 1.08 0.84 0.76 0.63 0.42 0.41 0.52 0.72 0.85 0.92 0.86 0.83 0.90 1.05 1.20 1.30 1.47 1.73 1.85 1.81 1.78 1.77 1.86 1.75 1.58 1.48 1.39 1.33 1.17 1.08 1.09 1.10 1.10 1.00 1.03 1.12 1.21 1.22 1.22 1.25 1.28
0.05 0.04 0.11 0.22 0.34 0.53 0.72 1.09 1.21 0.86 0.58 0.35 0.26 0.35 0.53 0.67 0.72 0.75 0.74 0.69 0.68 0.75 0.93 1.05 1.23 1.41 1.61 1.62 1.60 1.59 1.63 1.57 1.46 1.45 1.23 1.16 1.11 1.05 1.08 1.11 1.06 1.04 1.07 1.08 1.27 1.17 1.12 1.16 1.15
0.05 0.03 0.04 0.07 0.12 0.33 0.71 1.02 0.97 0.76 0.56 0.39 0.32 0.35 0.45 0.49 0.52 0.62 0.67 0.73 0.70 0.68 0.78 0.90 1.11 1.29 1.47 1.58 1.62 1.54 1.53 1.53 1.51 1.45 1.28 1.12 1.21 1.13 1.20 1.18 1.15 1.15 1.22 1.29 1.36 1.25 1.23 1.26 1.13
0.05 0.05 0.04 0.05 0.11 0.25 0.54 0.96 1.15 0.94 0.70 0.51 0.43 0.42 0.49 0.50 0.52 0.69 0.80 0.74 0.62 0.53 0.60 0.74 0.91 1.14 1.29 1.45 1.48 1.38 1.54 1.52 1.52 1.45 1.33 1.20 1.18 1.18 1.25 1.25 1.20 1.24 1.28 1.36 1.41 1.30 1.33 1.31 1.23
0.07 0.06 0.06 0.05 0.08 0.14 0.38 0.61 0.59 0.55 0.46 0.43 0.48 0.47 0.38 0.43 0.53 0.70 0.85 0.79 0.59 0.48 0.49 0.56 0.73 0.91 1.02 1.13 1.24 1.24 1.31 1.30 1.33 1.37 1.35 1.31 1.29 1.26 1.26 1.26 1.24 1.22 1.26 1.33 1.38 1.31 1.29 1.26 1.28
0.09 0.09 0.09 0.08 0.08 0.09 0.18 0.37 0.32 0.35 0.37 0.39 0.50 0.56 0.50 0.50 0.57 0.54 0.64 0.75 0.68 0.57 0.45 0.50 0.65 0.77 0.84 0.92 0.95 1.00 1.08 1.13 1.13 1.15 1.24 1.31 1.27 1.21 1.26 1.29 1.23 1.13 1.19 1.31 1.33 1.27 1.29 1.31 1.27